Radiation Dose at Monitoring Post of Fukushima Daini Nuclear Power Station
Date,Time,MP-1(microSv/h),MP-2(microSv/h),MP-3(microSv/h),MP-4(microSv/h),MP-5(microSv/h),MP-6(microSv/h),MP-7(microSv/h),Wind Direction,Wind Velocity(m/s),Rain
2015/03/25,00:00,0.548,0.338,0.572,0.530,0.559,0.256,0.229,northwest,1.8,No
2015/03/25,00:10,0.548,0.336,0.573,0.528,0.556,0.256,0.230,northwest,1.8,No
2015/03/25,00:20,0.548,0.337,0.574,0.528,0.559,0.257,0.229,north-northwest,3.5,No
2015/03/25,00:30,0.549,0.337,0.576,0.531,0.557,0.256,0.229,north-northwest,2.4,No
2015/03/25,00:40,0.548,0.336,0.573,0.529,0.557,0.258,0.227,north,2.3,No
2015/03/25,00:50,0.547,0.338,0.574,0.530,0.558,0.256,0.230,north-northwest,2.7,No
2015/03/25,01:00,0.548,0.337,0.573,0.529,0.557,0.257,0.228,north,2.4,No
2015/03/25,01:10,0.548,0.337,0.573,0.529,0.557,0.255,0.228,north,2.0,No
2015/03/25,01:20,0.549,0.336,0.572,0.530,0.559,0.256,0.229,north,2.4,No
2015/03/25,01:30,0.547,0.336,0.572,0.529,0.558,0.257,0.230,north,2.1,No
2015/03/25,01:40,0.548,0.337,0.572,0.529,0.556,0.256,0.230,north-northwest,2.2,No
2015/03/25,01:50,0.547,0.338,0.574,0.528,0.556,0.257,0.228,north-northwest,1.8,No
2015/03/25,02:00,0.548,0.337,0.574,0.529,0.559,0.257,0.228,north-northwest,2.0,No
2015/03/25,02:10,0.545,0.335,0.572,0.529,0.557,0.256,0.230,north-northwest,2.8,No
2015/03/25,02:20,0.547,0.337,0.573,0.527,0.558,0.255,0.229,north-northwest,3.1,No
2015/03/25,02:30,0.547,0.336,0.573,0.528,0.557,0.256,0.229,north-northwest,5.0,No
2015/03/25,02:40,0.546,0.337,0.573,0.529,0.557,0.256,0.229,north-northwest,4.4,No
2015/03/25,02:50,0.546,0.337,0.574,0.530,0.557,0.257,0.229,north,4.7,No
2015/03/25,03:00,0.548,0.336,0.574,0.529,0.557,0.257,0.230,north-northwest,5.8,No
2015/03/25,03:10,0.546,0.335,0.574,0.528,0.558,0.257,0.229,north-northwest,4.6,No
2015/03/25,03:20,0.546,0.337,0.575,0.529,0.556,0.256,0.230,north-northwest,5.0,No
2015/03/25,03:30,0.546,0.336,0.574,0.529,0.558,0.256,0.229,northwest,3.6,No
2015/03/25,03:40,0.547,0.337,0.575,0.528,0.556,0.256,0.228,north-northwest,3.9,No
2015/03/25,03:50,0.546,0.336,0.573,0.532,0.560,0.255,0.228,north-northwest,4.2,No
2015/03/25,04:00,0.547,0.336,0.573,0.529,0.557,0.255,0.228,north-northwest,4.8,No
2015/03/25,04:10,0.546,0.336,0.572,0.530,0.559,0.256,0.228,northwest,4.9,No
2015/03/25,04:20,0.546,0.336,0.574,0.527,0.557,0.255,0.229,northwest,3.2,No
2015/03/25,04:30,0.546,0.337,0.573,0.530,0.559,0.255,0.229,north-northwest,2.7,No
2015/03/25,04:40,0.546,0.337,0.573,0.529,0.560,0.255,0.228,north-northwest,5.3,No
2015/03/25,04:50,0.546,0.336,0.572,0.529,0.558,0.257,0.229,north-northwest,4.8,No
2015/03/25,05:00,0.548,0.337,0.574,0.527,0.555,0.255,0.228,north-northwest,4.5,No
2015/03/25,05:10,0.546,0.336,0.575,0.527,0.556,0.255,0.228,north-northwest,3.9,No
2015/03/25,05:20,0.545,0.335,0.572,0.529,0.557,0.257,0.228,north-northwest,3.9,No
2015/03/25,05:30,0.546,0.336,0.574,0.529,0.557,0.255,0.229,north-northwest,3.9,No
2015/03/25,05:40,0.545,0.336,0.572,0.528,0.558,0.255,0.229,north-northwest,4.5,No
2015/03/25,05:50,0.545,0.336,0.573,0.529,0.557,0.257,0.229,north-northwest,3.6,No
2015/03/25,06:00,0.546,0.335,0.573,0.527,0.556,0.254,0.229,north-northwest,2.9,No
2015/03/25,06:10,0.548,0.337,0.572,0.528,0.557,0.256,0.229,north-northwest,3.1,No
2015/03/25,06:20,0.547,0.336,0.572,0.528,0.558,0.256,0.228,northwest,3.6,No
2015/03/25,06:30,0.545,0.336,0.571,0.528,0.557,0.255,0.228,north-northwest,5.0,No
2015/03/25,06:40,0.546,0.337,0.573,0.529,0.555,0.256,0.227,north,4.2,No
2015/03/25,06:50,0.547,0.336,0.573,0.528,0.557,0.257,0.228,north,3.6,No
2015/03/25,07:00,0.547,0.336,0.572,0.527,0.557,0.255,0.228,north,3.0,No
2015/03/25,07:10,0.546,0.339,0.572,0.528,0.557,0.256,0.227,north,2.4,No
2015/03/25,07:20,0.545,0.336,0.573,0.528,0.558,0.257,0.228,north,1.7,No
2015/03/25,07:30,0.548,0.335,0.574,0.530,0.557,0.256,0.227,north,2.9,No
2015/03/25,07:40,0.547,0.335,0.573,0.526,0.559,0.253,0.227,north-northwest,2.6,No
2015/03/25,07:50,0.547,0.335,0.572,0.524,0.557,0.255,0.227,north,2.8,No
2015/03/25,08:00,0.548,0.336,0.572,0.526,0.556,0.254,0.226,northwest,3.0,No
2015/03/25,08:10,0.548,0.333,0.574,0.526,0.559,0.256,0.227,north-northwest,2.6,No
2015/03/25,08:20,0.547,0.337,0.573,0.525,0.559,0.256,0.226,northwest,2.3,No
2015/03/25,08:30,0.547,0.334,0.572,0.527,0.558,0.256,0.228,northwest,4.0,No
2015/03/25,08:40,0.549,0.336,0.573,0.525,0.556,0.255,0.226,northwest,6.8,No
2015/03/25,08:50,0.546,0.336,0.573,0.528,0.559,0.256,0.228,northwest,6.4,No
2015/03/25,09:00,0.547,0.335,0.573,0.526,0.557,0.256,0.227,north-northwest,5.6,No
2015/03/25,09:10,0.550,0.335,0.577,0.529,0.555,0.256,0.228,northwest,4.8,No
2015/03/25,09:20,0.546,0.336,0.574,0.526,0.560,0.255,0.228,northwest,4.9,No
2015/03/25,09:30,0.548,0.335,0.572,0.530,0.558,0.255,0.228,west-northwest,6.5,No
2015/03/25,09:40,0.549,0.337,0.576,0.528,0.559,0.256,0.227,northwest,4.6,No
2015/03/25,09:50,0.545,0.337,0.574,0.527,0.559,0.254,0.227,north-northwest,4.8,No
2015/03/25,10:00,0.550,0.337,0.572,0.531,0.558,0.255,0.228,north-northwest,5.5,No
2015/03/25,10:10,0.546,0.337,0.576,0.527,0.562,0.256,0.229,north-northwest,7.3,No
2015/03/25,10:20,0.547,0.335,0.571,0.530,0.558,0.255,0.227,northwest,6.4,No
2015/03/25,10:30,0.546,0.337,0.572,0.525,0.563,0.256,0.228,northwest,6.1,No
2015/03/25,10:40,0.546,0.337,0.576,0.530,0.557,0.255,0.229,west-northwest,8.1,No
2015/03/25,10:50,0.546,0.336,0.572,0.525,0.563,0.256,0.228,west-northwest,8.3,No
2015/03/25,11:00,0.546,0.336,0.575,0.528,0.557,0.256,0.228,west-northwest,7.3,No
2015/03/25,11:10,0.550,0.337,0.570,0.527,0.562,0.255,0.228,west-northwest,5.2,No
2015/03/25,11:20,0.546,0.338,0.573,0.529,0.559,0.256,0.228,west-northwest,4.0,No
2015/03/25,11:30,0.548,0.335,0.573,0.527,0.561,0.255,0.227,north-northwest,3.8,No
2015/03/25,11:40,0.548,0.338,0.570,0.530,0.561,0.256,0.230,west-northwest,10.1,No
2015/03/25,11:50,0.548,0.335,0.576,0.529,0.559,0.255,0.228,west-northwest,9.7,No
2015/03/25,12:00,0.548,0.338,0.571,0.530,0.560,0.254,0.227,west-northwest,9.5,No
2015/03/25,12:10,0.545,0.336,0.574,0.528,0.558,0.256,0.229,west-northwest,8.7,No
2015/03/25,12:20,0.551,0.337,0.570,0.529,0.560,0.257,0.229,west-northwest,8.2,No
2015/03/25,12:30,0.546,0.339,0.575,0.530,0.558,0.257,0.228,west-northwest,9.2,No
2015/03/25,12:40,0.551,0.336,0.571,0.525,0.560,0.255,0.229,west,7.3,No
2015/03/25,12:50,0.547,0.337,0.576,0.529,0.557,0.256,0.228,northwest,5.8,No
2015/03/25,13:00,0.549,0.338,0.574,0.527,0.560,0.255,0.228,northwest,7.5,No
2015/03/25,13:10,0.547,0.339,0.576,0.532,0.560,0.256,0.229,northwest,6.2,No
2015/03/25,13:20,0.547,0.337,0.574,0.528,0.562,0.255,0.229,northwest,6.1,No
2015/03/25,13:30,0.549,0.339,0.574,0.534,0.558,0.258,0.229,north-northwest,10.1,No
2015/03/25,13:40,0.547,0.338,0.574,0.527,0.563,0.256,0.228,north-northwest,6.9,No
2015/03/25,13:50,0.551,0.339,0.575,0.533,0.559,0.257,0.230,northwest,8.1,No
2015/03/25,14:00,0.548,0.338,0.573,0.529,0.559,0.254,0.229,north-northwest,10.1,No
2015/03/25,14:10,0.551,0.336,0.573,0.528,0.559,0.257,0.229,north-northwest,11.6,No
2015/03/25,14:20,0.547,0.338,0.572,0.530,0.560,0.256,0.228,north-northwest,11.3,No
2015/03/25,14:30,0.552,0.335,0.575,0.530,0.562,0.255,0.234,north-northwest,8.7,No
2015/03/25,14:40,0.550,0.338,0.574,0.532,0.562,0.256,0.229,north-northwest,8.3,No
2015/03/25,14:50,0.547,0.337,0.576,0.528,0.559,0.256,0.229,north-northwest,6.7,No
2015/03/25,15:00,0.551,0.337,0.574,0.531,0.562,0.256,0.230,north-northwest,8.4,No
2015/03/25,15:10,0.548,0.339,0.575,0.530,0.561,0.255,0.228,north-northwest,7.4,No
2015/03/25,15:20,0.550,0.338,0.577,0.530,0.563,0.256,0.230,north-northwest,6.2,No
2015/03/25,15:30,0.548,0.339,0.575,0.535,0.560,0.255,0.230,north-northwest,6.1,No
2015/03/25,15:40,0.550,0.338,0.577,0.532,0.564,0.257,0.230,north,7.1,No
2015/03/25,15:50,0.549,0.338,0.579,0.531,0.559,0.256,0.230,north-northwest,6.2,No
2015/03/25,16:00,0.549,0.339,0.576,0.533,0.563,0.257,0.229,north-northwest,6.4,No
2015/03/25,16:10,0.553,0.338,0.579,0.531,0.559,0.255,0.229,north,8.4,No
2015/03/25,16:20,0.549,0.338,0.578,0.533,0.560,0.256,0.229,north,8.1,No
2015/03/25,16:30,0.549,0.340,0.578,0.532,0.560,0.255,0.229,north,8.0,No
2015/03/25,16:40,0.551,0.338,0.576,0.532,0.560,0.257,0.229,north,7.3,No
2015/03/25,16:50,0.549,0.338,0.577,0.532,0.564,0.255,0.231,north,6.1,No
2015/03/25,17:00,0.550,0.341,0.576,0.531,0.560,0.255,0.230,north,8.3,No
2015/03/25,17:10,0.552,0.339,0.577,0.531,0.561,0.257,0.230,north,7.5,No
2015/03/25,17:20,0.549,0.339,0.575,0.533,0.564,0.256,0.229,north,6.1,No
2015/03/25,17:30,0.550,0.337,0.575,0.533,0.563,0.256,0.229,north,6.2,No
2015/03/25,17:40,0.551,0.340,0.577,0.530,0.562,0.256,0.231,north,4.5,No
2015/03/25,17:50,0.550,0.338,0.578,0.531,0.561,0.255,0.231,north-northwest,4.0,No
2015/03/25,18:00,0.551,0.338,0.577,0.531,0.560,0.257,0.231,north,6.2,No
2015/03/25,18:10,0.551,0.339,0.577,0.531,0.561,0.257,0.230,north,6.4,No
2015/03/25,18:20,0.551,0.338,0.577,0.531,0.561,0.255,0.229,north,4.2,No
2015/03/25,18:30,0.549,0.339,0.575,0.533,0.563,0.255,0.230,north,3.8,No
2015/03/25,18:40,0.552,0.338,0.575,0.531,0.561,0.256,0.231,north,4.2,No
2015/03/25,18:50,0.551,0.338,0.576,0.530,0.560,0.257,0.228,north,3.1,No
2015/03/25,19:00,0.549,0.340,0.577,0.531,0.562,0.257,0.229,north,3.1,No
2015/03/25,19:10,0.553,0.338,0.575,0.532,0.560,0.255,0.230,north,2.8,No
2015/03/25,19:20,0.550,0.337,0.575,0.530,0.560,0.256,0.230,north,2.8,No
2015/03/25,19:30,0.551,0.338,0.579,0.532,0.559,0.258,0.230,north,2.5,No
2015/03/25,19:40,0.549,0.340,0.574,0.532,0.563,0.257,0.228,north,2.2,No
2015/03/25,19:50,0.552,0.338,0.574,0.531,0.561,0.257,0.229,northwest,1.1,No
2015/03/25,20:00,0.548,0.338,0.576,0.529,0.559,0.257,0.229,northwest,1.4,No
2015/03/25,20:10,0.549,0.338,0.578,0.529,0.560,0.257,0.229,north-northwest,2.5,No
2015/03/25,20:20,0.550,0.339,0.576,0.529,0.561,0.256,0.229,north-northwest,2.9,No
2015/03/25,20:30,0.550,0.338,0.578,0.533,0.559,0.257,0.229,north,4.5,No
2015/03/25,20:40,0.550,0.338,0.577,0.531,0.559,0.255,0.229,north,2.4,No
2015/03/25,20:50,0.551,0.338,0.576,0.532,0.557,0.256,0.229,north,1.9,No
2015/03/25,21:00,0.550,0.339,0.576,0.532,0.559,0.258,0.229,north-northwest,1.7,No
2015/03/25,21:10,0.551,0.338,0.576,0.532,0.559,0.256,0.229,north,2.3,No
2015/03/25,21:20,0.549,0.337,0.577,0.531,0.560,0.256,0.230,north,3.5,No
2015/03/25,21:30,0.550,0.337,0.578,0.531,0.558,0.256,0.229,north-northwest,4.2,No
2015/03/25,21:40,0.550,0.337,0.575,0.533,0.559,0.256,0.229,north-northwest,4.0,No
2015/03/25,21:50,0.550,0.339,0.575,0.531,0.562,0.256,0.230,north-northwest,3.4,No
2015/03/25,22:00,0.550,0.337,0.577,0.529,0.559,0.257,0.229,north-northwest,3.9,No
2015/03/25,22:10,0.549,0.338,0.578,0.533,0.559,0.258,0.228,north-northwest,3.9,No
2015/03/25,22:20,0.551,0.338,0.576,0.532,0.557,0.257,0.230,north,5.3,No
2015/03/25,22:30,0.548,0.340,0.577,0.530,0.561,0.256,0.230,north-northwest,4.8,No
2015/03/25,22:40,0.549,0.339,0.578,0.530,0.559,0.256,0.230,north,4.4,No
2015/03/25,22:50,0.549,0.337,0.576,0.531,0.560,0.256,0.229,north-northwest,5.3,No
2015/03/25,23:00,0.553,0.338,0.576,0.530,0.559,0.257,0.230,north-northwest,5.3,No
2015/03/25,23:10,0.549,0.337,0.576,0.531,0.560,0.257,0.230,north-northwest,6.5,No
2015/03/25,23:20,0.551,0.339,0.580,0.528,0.561,0.257,0.230,north,6.7,No
2015/03/25,23:30,0.551,0.338,0.577,0.531,0.561,0.256,0.229,north-northwest,5.8,No
2015/03/25,23:40,0.550,0.337,0.577,0.533,0.557,0.255,0.230,north,4.3,No
2015/03/25,23:50,0.550,0.336,0.575,0.533,0.559,0.255,0.230,north,4.8,No
